Time,TemperatureF,DewpointF,PressureIn,WindDirection,WindDirectionDegrees,WindSpeedMPH,WindSpeedGustMPH,Humidity,HourlyPrecipIn,Conditions,Clouds,dailyrainin,SoftwareType,DateUTC
2013-07-04 00:01:00,69.0,59.0,29.94,South,181,6.0,10.0,70,0.00,,,0.00,,2013-07-04 05:01:00,
2013-07-04 00:12:00,69.0,59.0,29.94,South,181,6.0,10.0,70,0.00,,,0.00,,2013-07-04 05:12:00,
2013-07-04 00:22:00,68.0,58.0,29.94,South,184,5.0,10.0,71,0.00,,,0.00,,2013-07-04 05:22:00,
2013-07-04 00:33:00,68.0,59.0,29.93,SSE,167,4.0,8.0,72,0.00,,,0.00,,2013-07-04 05:33:00,
2013-07-04 00:43:00,68.0,59.0,29.93,SSE,167,4.0,8.0,72,0.00,,,0.00,,2013-07-04 05:43:00,
2013-07-04 00:52:00,67.0,58.0,29.94,SSW,195,5.0,8.0,72,0.00,,,0.00,,2013-07-04 05:52:00,
2013-07-04 01:01:00,66.0,57.0,29.94,South,182,4.0,8.0,74,0.00,,,0.00,,2013-07-04 06:01:00,
2013-07-04 01:11:00,66.0,57.0,29.94,South,182,4.0,8.0,74,0.00,,,0.00,,2013-07-04 06:11:00,
2013-07-04 01:22:00,66.0,57.0,29.94,SSE,166,4.0,9.0,73,0.00,,,0.00,,2013-07-04 06:22:00,
2013-07-04 01:34:00,65.0,56.0,29.94,South,183,6.0,10.0,73,0.00,,,0.00,,2013-07-04 06:34:00,
2013-07-04 01:43:00,65.0,56.0,29.94,South,183,6.0,10.0,73,0.00,,,0.00,,2013-07-04 06:43:00,
2013-07-04 01:53:00,65.0,56.0,29.93,SW,217,5.0,10.0,74,0.00,,,0.00,,2013-07-04 06:53:00,
2013-07-04 02:02:00,65.0,56.0,29.93,SSE,158,2.0,9.0,73,0.00,,,0.00,,2013-07-04 07:02:00,
2013-07-04 02:12:00,65.0,56.0,29.93,SSE,158,2.0,9.0,73,0.00,,,0.00,,2013-07-04 07:12:00,
2013-07-04 02:22:00,65.0,56.0,29.93,SW,230,3.0,7.0,74,0.00,,,0.00,,2013-07-04 07:22:00,
2013-07-04 02:34:00,64.0,56.0,29.93,SSW,200,3.0,7.0,75,0.00,,,0.00,,2013-07-04 07:34:00,
2013-07-04 02:43:00,64.0,56.0,29.93,SSW,200,3.0,7.0,75,0.00,,,0.00,,2013-07-04 07:43:00,
2013-07-04 02:52:00,64.0,56.0,29.93,SW,236,2.0,5.0,76,0.00,,,0.00,,2013-07-04 07:52:00,
2013-07-04 03:11:00,63.0,56.0,29.93,SSE,167,2.0,5.0,77,0.00,,,0.00,,2013-07-04 08:11:00,
2013-07-04 03:22:00,63.0,56.0,29.93,SW,214,2.0,5.0,77,0.00,,,0.00,,2013-07-04 08:22:00,
2013-07-04 03:33:00,63.0,56.0,29.93,SSW,201,4.0,8.0,78,0.00,,,0.00,,2013-07-04 08:33:00,
2013-07-04 03:42:00,63.0,56.0,29.93,SSW,201,4.0,8.0,78,0.00,,,0.00,,2013-07-04 08:42:00,
2013-07-04 03:53:00,63.0,56.0,29.93,South,191,5.0,8.0,78,0.00,,,0.00,,2013-07-04 08:53:00,
2013-07-04 04:02:00,62.0,56.0,29.93,South,179,3.0,6.0,80,0.00,,,0.00,,2013-07-04 09:02:00,
2013-07-04 04:11:00,62.0,56.0,29.93,South,179,3.0,6.0,80,0.00,,,0.00,,2013-07-04 09:11:00,
2013-07-04 04:22:00,62.0,56.0,29.93,South,180,4.0,7.0,80,0.00,,,0.00,,2013-07-04 09:22:00,
2013-07-04 04:32:00,62.0,56.0,29.93,South,174,2.0,6.0,80,0.00,,,0.00,,2013-07-04 09:32:00,
2013-07-04 04:42:00,62.0,56.0,29.93,South,174,2.0,6.0,80,0.00,,,0.00,,2013-07-04 09:42:00,
2013-07-04 04:52:00,62.0,56.0,29.93,South,180,5.0,9.0,80,0.00,,,0.00,,2013-07-04 09:52:00,
2013-07-04 05:01:00,62.0,56.0,29.93,SSE,159,3.0,8.0,81,0.00,,,0.00,,2013-07-04 10:01:00,
2013-07-04 05:11:00,62.0,56.0,29.93,SSE,159,3.0,8.0,81,0.00,,,0.00,,2013-07-04 10:11:00,
2013-07-04 05:22:00,62.0,56.0,29.93,South,185,3.0,7.0,82,0.00,,,0.00,,2013-07-04 10:22:00,
2013-07-04 05:42:00,62.0,57.0,29.93,South,169,3.0,8.0,83,0.00,,,0.00,,2013-07-04 10:42:00,
2013-07-04 05:53:00,62.0,57.0,29.93,SSW,198,3.0,7.0,84,0.00,,,0.00,,2013-07-04 10:53:00,
2013-07-04 06:02:00,61.0,56.0,29.93,SSW,203,4.0,7.0,85,0.00,,,0.00,,2013-07-04 11:02:00,
2013-07-04 06:11:00,61.0,56.0,29.93,SSW,203,4.0,7.0,85,0.00,,,0.00,,2013-07-04 11:11:00,
2013-07-04 06:22:00,61.0,57.0,29.93,SW,214,3.0,8.0,86,0.00,,,0.00,,2013-07-04 11:22:00,
2013-07-04 06:34:00,62.0,58.0,29.93,SW,219,2.0,5.0,86,0.00,,,0.00,,2013-07-04 11:34:00,
2013-07-04 06:43:00,62.0,58.0,29.93,SW,219,2.0,5.0,86,0.00,,,0.00,,2013-07-04 11:43:00,
2013-07-04 06:53:00,63.0,58.0,29.93,SW,236,2.0,4.0,84,0.00,,,0.00,,2013-07-04 11:53:00,
2013-07-04 07:02:00,63.0,58.0,29.94,WSW,239,4.0,7.0,83,0.00,,,0.00,,2013-07-04 12:02:00,
2013-07-04 07:12:00,63.0,58.0,29.94,WSW,239,4.0,7.0,83,0.00,,,0.00,,2013-07-04 12:12:00,
2013-07-04 07:22:00,64.0,58.0,29.94,SSW,210,3.0,7.0,81,0.00,,,0.00,,2013-07-04 12:22:00,
2013-07-04 07:33:00,65.0,58.0,29.94,SSW,208,3.0,6.0,78,0.00,,,0.00,,2013-07-04 12:33:00,
2013-07-04 07:43:00,65.0,58.0,29.94,SSW,208,3.0,6.0,78,0.00,,,0.00,,2013-07-04 12:43:00,
2013-07-04 07:52:00,66.0,58.0,29.95,WSW,238,2.0,6.0,76,0.00,,,0.00,,2013-07-04 12:52:00,
2013-07-04 08:02:00,67.0,58.0,29.95,SW,214,7.0,11.0,72,0.00,,,0.00,,2013-07-04 13:02:00,
2013-07-04 08:12:00,67.0,58.0,29.95,SW,214,7.0,11.0,72,0.00,,,0.00,,2013-07-04 13:12:00,
2013-07-04 08:23:00,69.0,59.0,29.95,WSW,245,6.0,10.0,70,0.00,,,0.00,,2013-07-04 13:23:00,
2013-07-04 08:33:00,70.0,58.0,29.95,SSW,208,6.0,10.0,66,0.00,,,0.00,,2013-07-04 13:33:00,
2013-07-04 08:43:00,70.0,58.0,29.95,SSW,208,6.0,10.0,66,0.00,,,0.00,,2013-07-04 13:43:00,
2013-07-04 08:53:00,71.0,57.0,29.94,WSW,252,7.0,11.0,62,0.00,,,0.00,,2013-07-04 13:53:00,
2013-07-04 09:02:00,72.0,58.0,29.94,SW,231,7.0,10.0,61,0.00,,,0.00,,2013-07-04 14:02:00,
2013-07-04 09:11:00,72.0,58.0,29.94,SW,231,7.0,10.0,61,0.00,,,0.00,,2013-07-04 14:11:00,
2013-07-04 09:22:00,73.0,59.0,29.95,WSW,241,7.0,11.0,61,0.00,,,0.00,,2013-07-04 14:22:00,
2013-07-04 09:33:00,74.0,59.0,29.94,SW,229,4.0,9.0,60,0.00,,,0.00,,2013-07-04 14:33:00,
2013-07-04 09:43:00,74.0,59.0,29.94,SW,229,4.0,9.0,60,0.00,,,0.00,,2013-07-04 14:43:00,
2013-07-04 09:53:00,75.0,60.0,29.94,SW,231,5.0,10.0,59,0.00,,,0.00,,2013-07-04 14:53:00,
2013-07-04 10:02:00,76.0,61.0,29.93,SSE,167,4.0,11.0,59,0.00,,,0.00,,2013-07-04 15:02:00,
2013-07-04 10:11:00,76.0,61.0,29.93,SSE,167,4.0,11.0,59,0.00,,,0.00,,2013-07-04 15:11:00,
2013-07-04 10:23:00,77.0,60.0,29.93,SSE,164,5.0,8.0,56,0.00,,,0.00,,2013-07-04 15:23:00,
2013-07-04 10:33:00,78.0,60.0,29.93,SE,145,4.0,13.0,54,0.00,,,0.00,,2013-07-04 15:33:00,
2013-07-04 10:43:00,78.0,60.0,29.93,SE,145,4.0,13.0,54,0.00,,,0.00,,2013-07-04 15:43:00,
2013-07-04 10:53:00,79.0,59.0,29.93,SW,217,4.0,12.0,50,0.00,,,0.00,,2013-07-04 15:53:00,
2013-07-04 11:02:00,80.0,60.0,29.92,SSE,150,6.0,12.0,51,0.00,,,0.00,,2013-07-04 16:02:00,
2013-07-04 11:11:00,80.0,60.0,29.92,SSE,150,6.0,12.0,51,0.00,,,0.00,,2013-07-04 16:11:00,
2013-07-04 11:22:00,80.0,60.0,29.92,SSE,163,6.0,14.0,51,0.00,,,0.00,,2013-07-04 16:22:00,
2013-07-04 11:33:00,81.0,61.0,29.92,South,169,6.0,13.0,50,0.00,,,0.00,,2013-07-04 16:33:00,
2013-07-04 11:43:00,81.0,61.0,29.92,South,169,6.0,13.0,50,0.00,,,0.00,,2013-07-04 16:43:00,
2013-07-04 11:52:00,81.0,58.0,29.92,West,269,7.0,12.0,45,0.00,,,0.00,,2013-07-04 16:52:00,
2013-07-04 12:01:00,82.0,59.0,29.92,SSE,165,9.0,16.0,46,0.00,,,0.00,,2013-07-04 17:01:00,
2013-07-04 12:12:00,82.0,59.0,29.92,SSE,165,9.0,16.0,46,0.00,,,0.00,,2013-07-04 17:12:00,
2013-07-04 12:22:00,82.0,60.0,29.92,SSE,153,8.0,15.0,47,0.00,,,0.00,,2013-07-04 17:22:00,
2013-07-04 12:34:00,83.0,59.0,29.92,SSW,204,7.0,15.0,45,0.00,,,0.00,,2013-07-04 17:34:00,
2013-07-04 12:43:00,83.0,59.0,29.92,SSW,204,7.0,15.0,45,0.00,,,0.00,,2013-07-04 17:43:00,
2013-07-04 12:53:00,83.0,57.0,29.91,West,262,8.0,13.0,41,0.00,,,0.00,,2013-07-04 17:53:00,
2013-07-04 13:01:00,84.0,59.0,29.91,South,181,7.0,14.0,43,0.00,,,0.00,,2013-07-04 18:01:00,
2013-07-04 13:11:00,84.0,59.0,29.91,South,181,7.0,14.0,43,0.00,,,0.00,,2013-07-04 18:11:00,
2013-07-04 13:22:00,84.0,58.0,29.90,South,184,6.0,12.0,42,0.00,,,0.00,,2013-07-04 18:22:00,
2013-07-04 13:33:00,85.0,57.0,29.90,West,270,7.0,14.0,38,0.00,,,0.00,,2013-07-04 18:33:00,
2013-07-04 13:43:00,85.0,57.0,29.90,West,270,7.0,14.0,38,0.00,,,0.00,,2013-07-04 18:43:00,
2013-07-04 13:52:00,85.0,59.0,29.89,SW,224,8.0,19.0,41,0.00,,,0.00,,2013-07-04 18:52:00,
2013-07-04 14:01:00,86.0,57.0,29.89,SSW,205,8.0,17.0,38,0.00,,,0.00,,2013-07-04 19:01:00,
2013-07-04 14:12:00,86.0,57.0,29.89,SSW,205,8.0,17.0,38,0.00,,,0.00,,2013-07-04 19:12:00,
2013-07-04 14:22:00,86.0,58.0,29.89,SW,225,8.0,15.0,39,0.00,,,0.00,,2013-07-04 19:22:00,
2013-07-04 14:33:00,86.0,57.0,29.88,South,191,8.0,18.0,37,0.00,,,0.00,,2013-07-04 19:33:00,
2013-07-04 14:43:00,86.0,57.0,29.88,South,191,8.0,18.0,37,0.00,,,0.00,,2013-07-04 19:43:00,
2013-07-04 14:53:00,86.0,54.0,29.88,SW,218,9.0,18.0,34,0.00,,,0.00,,2013-07-04 19:53:00,
2013-07-04 15:01:00,87.0,56.0,29.88,WSW,242,10.0,20.0,35,0.00,,,0.00,,2013-07-04 20:01:00,
2013-07-04 15:11:00,87.0,56.0,29.88,WSW,242,10.0,20.0,35,0.00,,,0.00,,2013-07-04 20:11:00,
2013-07-04 15:22:00,87.0,57.0,29.88,South,187,10.0,21.0,36,0.00,,,0.00,,2013-07-04 20:22:00,
2013-07-04 15:33:00,87.0,56.0,29.88,SW,233,8.0,18.0,35,0.00,,,0.00,,2013-07-04 20:33:00,
2013-07-04 15:42:00,87.0,56.0,29.88,SW,233,8.0,18.0,35,0.00,,,0.00,,2013-07-04 20:42:00,
2013-07-04 15:53:00,87.0,55.0,29.88,WSW,237,9.0,18.0,34,0.00,,,0.00,,2013-07-04 20:53:00,
2013-07-04 16:01:00,87.0,54.0,29.88,SW,231,10.0,21.0,33,0.00,,,0.00,,2013-07-04 21:01:00,
2013-07-04 16:11:00,87.0,54.0,29.88,SW,231,10.0,21.0,33,0.00,,,0.00,,2013-07-04 21:11:00,
2013-07-04 16:22:00,87.0,58.0,29.88,WSW,246,6.0,19.0,37,0.00,,,0.00,,2013-07-04 21:22:00,
2013-07-04 16:32:00,86.0,55.0,29.88,SW,233,9.0,20.0,35,0.00,,,0.00,,2013-07-04 21:32:00,
2013-07-04 16:43:00,86.0,55.0,29.88,SW,233,9.0,20.0,35,0.00,,,0.00,,2013-07-04 21:43:00,
2013-07-04 16:53:00,86.0,55.0,29.88,SSW,194,9.0,19.0,35,0.00,,,0.00,,2013-07-04 21:53:00,
2013-07-04 17:02:00,86.0,54.0,29.87,ESE,108,8.0,21.0,34,0.00,,,0.00,,2013-07-04 22:02:00,
2013-07-04 17:12:00,86.0,54.0,29.87,ESE,108,8.0,21.0,34,0.00,,,0.00,,2013-07-04 22:12:00,
2013-07-04 17:22:00,86.0,56.0,29.87,SSW,211,9.0,19.0,36,0.00,,,0.00,,2013-07-04 22:22:00,
2013-07-04 17:33:00,86.0,54.0,29.87,SSW,210,8.0,18.0,34,0.00,,,0.00,,2013-07-04 22:33:00,
2013-07-04 17:43:00,86.0,54.0,29.87,SSW,210,8.0,18.0,34,0.00,,,0.00,,2013-07-04 22:43:00,
2013-07-04 17:52:00,86.0,55.0,29.87,SW,233,8.0,23.0,35,0.00,,,0.00,,2013-07-04 22:52:00,
2013-07-04 18:01:00,85.0,53.0,29.86,SSE,147,9.0,19.0,34,0.00,,,0.00,,2013-07-04 23:01:00,
2013-07-04 18:12:00,85.0,53.0,29.86,SSE,147,9.0,19.0,34,0.00,,,0.00,,2013-07-04 23:12:00,
2013-07-04 18:23:00,85.0,56.0,29.86,SSW,194,11.0,24.0,37,0.00,,,0.00,,2013-07-04 23:23:00,
2013-07-04 18:33:00,85.0,56.0,29.86,SW,231,9.0,15.0,37,0.00,,,0.00,,2013-07-04 23:33:00,
2013-07-04 18:43:00,85.0,56.0,29.86,SW,231,9.0,15.0,37,0.00,,,0.00,,2013-07-04 23:43:00,
2013-07-04 18:52:00,85.0,57.0,29.86,SSW,201,8.0,17.0,38,0.00,,,0.00,,2013-07-04 23:52:00,
2013-07-04 19:01:00,84.0,56.0,29.86,SSW,198,9.0,17.0,39,0.00,,,0.00,,2013-07-05 00:01:00,
2013-07-04 19:11:00,84.0,56.0,29.86,SSW,198,9.0,17.0,39,0.00,,,0.00,,2013-07-05 00:11:00,
2013-07-04 19:22:00,83.0,56.0,29.86,SSW,192,10.0,21.0,40,0.00,,,0.00,,2013-07-05 00:22:00,
2013-07-04 19:32:00,82.0,57.0,29.86,SSW,200,6.0,19.0,42,0.00,,,0.00,,2013-07-05 00:32:00,
2013-07-04 19:43:00,82.0,57.0,29.86,SSW,200,6.0,19.0,42,0.00,,,0.00,,2013-07-05 00:43:00,
2013-07-04 19:52:00,82.0,57.0,29.86,SSW,197,9.0,23.0,42,0.00,,,0.00,,2013-07-05 00:52:00,
2013-07-04 20:01:00,82.0,57.0,29.86,SSW,197,9.0,23.0,42,0.00,,,0.00,,2013-07-05 01:01:00,
2013-07-04 20:11:00,82.0,57.0,29.86,SSW,197,9.0,23.0,42,0.00,,,0.00,,2013-07-05 01:11:00,
2013-07-04 20:22:00,81.0,56.0,29.85,SSE,168,9.0,17.0,42,0.00,,,0.00,,2013-07-05 01:22:00,
2013-07-04 20:32:00,81.0,56.0,29.85,SSE,168,9.0,17.0,42,0.00,,,0.00,,2013-07-05 01:32:00,
2013-07-04 20:42:00,81.0,56.0,29.85,SSE,168,9.0,17.0,42,0.00,,,0.00,,2013-07-05 01:42:00,
2013-07-04 20:52:00,79.0,56.0,29.85,SSW,208,6.0,15.0,45,0.00,,,0.00,,2013-07-05 01:52:00,
2013-07-04 21:02:00,79.0,56.0,29.85,SSW,208,6.0,15.0,45,0.00,,,0.00,,2013-07-05 02:02:00,
2013-07-04 21:11:00,79.0,56.0,29.85,SSW,208,6.0,15.0,45,0.00,,,0.00,,2013-07-05 02:11:00,
2013-07-04 21:21:00,78.0,56.0,29.85,SSE,162,6.0,11.0,46,0.00,,,0.00,,2013-07-05 02:21:00,
2013-07-04 21:32:00,78.0,56.0,29.85,SSE,162,6.0,11.0,46,0.00,,,0.00,,2013-07-05 02:32:00,
2013-07-04 21:43:00,78.0,56.0,29.85,SSE,162,6.0,11.0,46,0.00,,,0.00,,2013-07-05 02:43:00,
2013-07-04 21:52:00,78.0,56.0,29.85,SSE,162,6.0,11.0,46,0.00,,,0.00,,2013-07-05 02:52:00,
2013-07-04 22:22:00,74.0,56.0,29.87,South,177,5.0,8.0,53,0.00,,,0.00,,2013-07-05 03:22:00,
2013-07-04 22:33:00,74.0,56.0,29.87,South,177,5.0,8.0,53,0.00,,,0.00,,2013-07-05 03:33:00,
2013-07-04 22:42:00,74.0,56.0,29.87,South,177,5.0,8.0,53,0.00,,,0.00,,2013-07-05 03:42:00,
2013-07-04 22:52:00,74.0,56.0,29.87,South,177,5.0,8.0,53,0.00,,,0.00,,2013-07-05 03:52:00,
2013-07-04 23:01:00,72.0,57.0,29.88,SSE,168,5.0,8.0,60,0.00,,,0.00,,2013-07-05 04:01:00,
2013-07-04 23:11:00,72.0,57.0,29.88,SSE,168,5.0,8.0,60,0.00,,,0.00,,2013-07-05 04:11:00,
2013-07-04 23:22:00,72.0,57.0,29.88,SSE,150,5.0,8.0,60,0.00,,,0.00,,2013-07-05 04:22:00,
2013-07-04 23:33:00,72.0,57.0,29.88,SSE,150,5.0,8.0,60,0.00,,,0.00,,2013-07-05 04:33:00,
2013-07-04 23:43:00,72.0,57.0,29.88,SSE,150,5.0,8.0,60,0.00,,,0.00,,2013-07-05 04:43:00,
2013-07-04 23:53:00,71.0,58.0,29.88,SSE,163,7.0,11.0,63,0.00,,,0.00,,2013-07-05 04:53:00,